RH
100 99 98 96 94 94 93 93 93 86 83 81 84 79 73 71 72 70 67 69 76 85 91 94 96 92 86
100 100 98 95 96 95 92 82 91 83 82 82 82 75 71 72 71 70 68 68 77 87 93 96 94 91 85
100 98 98 98 97 95 93 93 83 79 77 78 80 78 73 70 69 72 70 67 76 88 93 96 95 89 85
98 99 98 99 97 96 97 96 95 83 77 75 78 79 74 67 69 73 69 66 75 89 92 97 96 91 91
98 99 99 100 98 98 99 98 96 96 94 92 88 85 78 68 76 73 67 66 74 88 93 98 96 93 88
100 99 97 95 98 98 98 99 98 93 94 93 82 87 80 75 69 74 67 67 72 86 93 98 98 96 94
94 94 94 94 96 98 98 98 97 92 89 95 87 83 82 68 70 74 67 69 72 83 92 97 98 98 96
89 91 89 94 90 92 95 96 96 90 82 97 92 86 81 77 72 76 77 71 74 80 88 95 97 97 97
86 85 85 86 91 96 99 99 99 97 87 90 88 88 89 87 87 80 85 77 74 77 78 90 94 96 94
94 90 87 87 87 93 97 100 99 99 91 93 89 90 96 89 93 95 95 85 86 82 76 78 89 96 98
86 92 91 96 98 97 96 99 100 100 86 92 97 96 98 97 96 98 98 96 96 94 90 76 80 89 98
88 94 95 96 98 98 99 99 99 100 94 97 96 93 98 95 94 96 98 99 99 98 98 89 84 76 82
88 94 96 95 99 99 98 97 98 98 99 98 96 97 97 95 95 98 97 97 99 99 99 98 98 96 96
89 95 98 98 100 98 100 99 100 100 96 99 99 98 99 97 100 98 99 91 99 100 99 99 95 93 94
94 96 98 98 98 99 99 97 100 100 100 96 93 93 99 99 99 99 99 98 99 99 98 99 97 94 93
88 91 96 98 98 99 99 98 100 100 99 98 100 97 92 90 90 98 99 98 99 100 99 97 93 86 89
91 92 93 96 98 98 97 98 98 100 100 99 100 96 94 89 92 84 96 98 99 99 99 99 98 89 78
Wind_Speed
1 3 3 4 3 2 2 2 1 3 4 5 3 1 4 8 11 14 15 18 20 23 26 28 25 20 12
2 2 3 2 3 2 1 0 2 4 4 3 4 0 4 7 10 13 16 18 20 23 26 26 22 15 7
4 2 2 2 2 0 0 2 3 6 5 5 2 2 3 7 10 12 15 17 19 23 27 28 9 7 3
2 3 2 2 2 2 2 1 2 1 2 4 4 6 4 5 8 11 13 15 18 21 23 23 15 20 22
3 3 3 3 4 3 3 1 2 1 0 1 0 1 1 4 5 9 12 14 16 19 21 18 9 13 20
3 4 4 3 4 4 3 2 2 1 2 2 2 1 1 2 6 9 10 12 15 17 19 17 8 10 14
6 5 5 6 6 4 3 3 2 2 2 1 0 1 1 2 6 9 9 11 12 13 16 18 13 10 9
5 4 2 5 5 5 5 3 2 1 2 2 1 1 2 2 6 7 8 9 10 12 13 16 16 17 13
10 9 10 11 9 6 3 2 1 1 2 2 1 1 2 2 3 6 8 9 8 10 11 12 13 14 15
5 5 6 6 10 3 4 2 2 0 2 2 1 1 3 1 2 3 4 8 8 11 9 11 10 5 6
5 4 3 4 3 4 4 2 2 1 2 3 2 1 1 3 2 2 3 3 3 5 10 9 10 7 4
4 3 3 3 2 3 4 3 3 3 2 2 2 3 2 1 1 2 2 2 2 1 2 5 9 7 5
4 3 2 3 6 4 4 5 4 3 2 2 1 4 2 2 1 1 2 2 2 1 1 2 2 2 3
4 3 4 4 3 3 3 2 2 1 1 0 3 3 3 2 2 1 0 0 2 1 0 1 1 1 1
3 5 4 5 3 3 2 3 2 2 2 2 3 2 2 4 2 2 1 2 2 1 2 2 2 3 2
4 6 6 6 5 4 2 2 2 3 3 3 2 2 2 2 6 2 1 2 1 1 1 2 2 2 2
6 6 5 5 9 6 5 3 3 2 3 3 2 3 3 1 2 9 4 1 1 1 1 2 2 2 2
Wind_Direction
93 141 154 164 155 136 183 84 17 287 301 339 229 208 323 345 342 339 342 340 339 335 334 328 321 311 281
143 124 171 157 171 184 47 252 253 270 278 306 149 224 345 333 341 345 346 343 343 341 338 336 323 312 305
143 133 133 149 111 69 126 306 270 249 245 255 213 269 306 330 347 347 347 346 349 346 345 342 358 25 351
121 115 131 137 126 161 213 223 270 336 308 284 290 280 303 338 346 346 345 354 354 352 351 345 4 68 59
125 128 174 162 174 165 163 176 277 213 330 311 86 293 313 344 333 342 351 360 1 356 352 347 24 61 84
141 184 181 168 154 154 142 164 221 264 84 331 61 282 290 313 344 353 359 5 3 3 355 0 47 71 90
160 187 171 175 135 132 163 182 166 125 98 274 9 276 304 327 347 359 0 14 7 13 4 11 54 69 72
118 169 150 141 141 153 169 157 96 139 160 223 8 283 344 2 355 8 9 21 18 26 23 18 45 61 73
113 135 134 143 135 117 142 120 149 194 184 157 100 301 15 321 324 360 19 34 37 33 32 31 31 63 65
105 89 96 147 155 150 141 131 136 194 189 162 104 31 345 284 319 353 3 26 32 33 33 43 42 46 63
134 117 103 103 108 133 148 136 149 169 183 126 160 117 80 304 322 360 12 7 11 19 18 48 53 59 69
146 150 147 148 129 105 95 96 73 102 69 122 142 148 152 329 274 338 10 343 31 355 351 28 44 56 91
175 162 165 139 122 110 96 87 62 41 36 49 136 138 128 156 222 322 32 324 351 8 354 73 87 25 59
173 121 128 140 138 141 137 127 105 311 93 14 156 155 133 176 134 305 237 213 323 326 20 37 74 120 146
146 156 153 153 152 149 117 141 146 161 171 182 173 172 170 154 158 213 255 274 244 231 83 342 293 234 230
170 168 166 161 152 150 126 157 152 168 176 175 151 82 18 272 197 152 240 234 284 162 104 94 304 302 228
176 179 162 158 158 163 164 164 181 169 214 168 144 119 87 140 291 199 165 220 131 103 158 165 209 270 252